Location: Camp at the Woods
(43.2055°N, 93.0905°W)
Time: 09:05:46
(UTC+00:00)

BlueWalker 3 - Pass Details

Date: 19 April 2024
Orbit: 482 x 494 km, 53.2° (Epoch: 22 May)

Event Time Altitude Azimuth Distance (km) Brightness Sun altitude
Rises 04:29:45 0° 283° (WNW) 2,578 6.1 -30.7°
Reaches altitude 10° 04:32:22 10° 301° (WNW) 1,698 5.3 -30.9°
Enters shadow 04:34:48 20° 340° (NNW) 1,217 4.5 -31.2°
